Location: Arboucave
(43.6130°N, 0.4343°W)
Time: 07:34:07
(UTC+00:00)

SL-12 R/B(2) - Pass Details

Date: 17 November 2025
Orbit: 1173 x 2175 km, 63.4° (Epoch: 13 December)

Event Time Altitude Azimuth Distance (km) Brightness Sun altitude
Rises 17:15:18 0° 205° (SSW) 4,126 7.5 -7.6°
Reaches altitude 10° 17:17:52 10° 204° (SSW) 3,224 6.9 -8.1°
Maximum altitude 17:25:33 73° 121° (ESE) 1,462 4.3 -9.4°
Drops below altitude 10° 17:34:56 10° 39° (NE) 3,886 6.1 -11.0°
Enters shadow 17:36:58 - 38° (NE) 4,571 6.5 -11.4°
